FW6582 Weather Reports


time (UTC)temp
C
wind
direction
speed
KPH
gust
KPH
rain 1hr
cm
rain 24hr
cm
rain mn
cm
humidity
%
barometer
mb
20260906224515 30 68 9.7 24.1 0.00 0.00 0.00 38 1019.5
20260906223516 31 68 11.3 22.5 0.00 0.00 0.00 36 1019.5
20260906222516 31 68 14.5 25.7 0.00 0.00 0.00 35 1019.5
20260906221556 31 68 11.3 24.1 0.00 0.00 0.00 36 1019.8
20260906220516 31 68 8.0 19.3 0.00 0.00 0.00 36 1020.4
20260906215536 30 68 11.3 20.9 0.00 0.00 0.00 36 1020.1
20260906214516 30 23 6.4 14.5 0.00 0.00 0.00 37 1020.3
20260906213536 30 68 11.3 24.1 0.00 0.00 0.00 37 1020.9
20260906212515 30 68 6.4 17.7 0.00 0.00 0.00 38 1021.0
20260906211515 30 68 9.7 20.9 0.00 0.00 0.00 36 1021.1
20260906210536 30 68 4.8 9.7 0.00 0.00 0.00 37 1021.6
20260906205516 30 45 8.0 17.7 0.00 0.00 0.00 37 1021.9
20260906204515 30 68 6.4 12.9 0.00 0.00 0.00 36 1021.9
20260906203516 30 45 4.8 12.9 0.00 0.00 0.00 36 1022.5
20260906202515 30 68 8.0 16.1 0.00 0.00 0.00 36 1022.5
20260906201515 30 0 9.7 16.1 0.00 0.00 0.00 37 1022.5
20260906200537 28 68 3.2 9.7 0.00 0.00 0.00 39 1022.8
20260906195557 28 68 6.4 14.5 0.00 0.00 0.00 39 1023.0
20260906194517 28 68 4.8 17.7 0.00 0.00 0.00 42 1022.8
20260906193518 28 113 4.8 19.3 0.00 0.00 0.00 41 1022.9
20260906192518 27 45 6.4 17.7 0.00 0.00 0.00 43 1022.8
20260906191518 27 68 11.3 22.5 0.00 0.00 0.00 43 1023.0
20260906190517 27 68 8.0 16.1 0.00 0.00 0.00 42 1023.1
20260906185517 27 23 6.4 16.1 0.00 0.00 0.00 42 1023.3
20260906184517 27 45 4.8 11.3 0.00 0.00 0.00 43 1023.3
20260906183518 26 68 4.8 11.3 0.00 0.00 0.00 43 1023.7
20260906182517 27 68 6.4 16.1 0.00 0.00 0.00 43 1023.8
20260906181518 26 68 6.4 16.1 0.00 0.00 0.00 44 1024.0
20260906180517 26 45 6.4 12.9 0.00 0.00 0.00 44 1023.6
20260906175517 26 90 3.2 9.7 0.00 0.00 0.00 43 1023.8
20260906174517 26 45 4.8 12.9 0.00 0.00 0.00 44 1024.0
20260906173517 26 68 3.2 9.7 0.00 0.00 0.00 45 1024.2
20260906172517 25 68 4.8 9.7 0.00 0.00 0.00 45 1024.3
20260906171538 25 45 4.8 12.9 0.00 0.00 0.00 48 1024.3
20260906170518 24 68 3.2 8.0 0.00 0.00 0.00 48 1024.5
20260906165517 24 68 4.8 9.7 0.00 0.00 0.00 50 1024.6
20260906164517 23 45 6.4 11.3 0.00 0.00 0.00 50 1024.7
20260906163538 23 90 4.8 11.3 0.00 0.00 0.00 51 1025.0
20260906162517 23 68 4.8 12.9 0.00 0.00 0.00 53 1025.1
20260906161518 23 68 4.8 9.7 0.00 0.00 0.00 52 1025.0
20260906160517 23 90 1.6 6.4 0.00 0.00 0.00 53 1024.6
20260906155537 22 90 4.8 11.3 0.00 0.00 0.00 54 1024.6
20260906154517 22 113 3.2 8.0 0.00 0.00 0.00 55 1024.2
20260906153517 22 68 4.8 14.5 0.00 0.00 0.00 55 1024.6
20260906152517 22 90 3.2 6.4 0.00 0.00 0.00 55 1024.2
20260906151517 22 90 3.2 9.7 0.00 0.00 0.00 55 1024.2
20260906150537 22 135 1.6 6.4 0.00 0.00 0.00 54 1024.7
20260906145518 21 158 1.6 6.4 0.00 0.00 0.00 55 1024.4
20260906144517 20 158 1.6 4.8 0.00 0.00 0.00 57 1023.8
20260906143557 19 158 1.6 6.4 0.00 0.00 0.00 60 1023.1
20260906142537 18 158 1.6 6.4 0.00 0.00 0.00 60 1023.1
20260906141517 18 180 3.2 8.0 0.00 0.00 0.00 60 1023.1
20260906140517 18 0.0 3.2 0.00 0.00 0.00 62 1023.6
20260906135517 17 0.0 0.0 0.00 0.00 0.00 66 1023.2
20260906134537 17 0.0 0.0 0.00 0.00 0.00 66 1022.8
20260906133517 16 0.0 0.0 0.00 0.00 0.00 69 1023.2
20260906132518 15 0.0 0.0 0.00 0.00 0.00 73 1022.5
20260906131517 14 0.0 0.0 0.00 0.00 0.00 74 1021.9
20260906130517 13 0.0 1.6 0.00 0.00 0.00 74 1022.5
20260906125517 13 0.0 0.0 0.00 0.00 0.00 74 1022.3
20260906124517 13 0.0 0.0 0.00 0.00 0.00 74 1022.2
20260906123517 14 0.0 3.2 0.00 0.00 0.00 73 1023.4
20260906122517 15 0.0 0.0 0.00 0.00 0.00 71 1023.9
20260906121517 15 0.0 1.6 0.00 0.00 0.00 70 1023.9
20260906120557 15 0.0 0.0 0.00 0.00 0.00 70 1024.4
20260906115517 15 113 1.6 4.8 0.00 0.00 0.00 69 1024.4
20260906114517 15 113 1.6 4.8 0.00 0.00 0.00 68 1024.5
20260906113517 16 0.0 4.8 0.00 0.00 0.00 67 1024.9
20260906112517 16 158 3.2 8.0 0.00 0.00 0.00 65 1024.7
20260906111517 16 135 3.2 6.4 0.00 0.00 0.00 66 1024.5
20260906110537 15 135 1.6 3.2 0.00 0.00 0.00 67 1023.8
20260906105517 15 135 1.6 3.2 0.00 0.00 0.00 66 1023.8
20260906104537 16 0.0 3.2 0.00 0.00 0.00 66 1024.2
20260906103537 16 0.0 0.0 0.00 0.00 0.00 66 1024.3
20260906102517 16 0.0 0.0 0.00 0.00 0.00 66 1024.2
20260906101517 16 0.0 0.0 0.00 0.00 0.00 66 1024.3
20260906100517 16 0.0 0.0 0.00 0.00 0.00 64 1024.1
20260906095517 16 135 1.6 3.2 0.00 0.00 0.00 64 1024.1
20260906094517 16 0.0 1.6 0.00 0.00 0.00 63 1024.1
20260906093517 17 0.0 3.2 0.00 0.00 0.00 62 1024.3
20260906092517 17 0.0 0.0 0.00 0.00 0.00 60 1024.2
20260906091517 17 0.0 3.2 0.00 0.00 0.00 59 1024.5
20260906090517 18 0.0 3.2 0.00 0.00 0.00 58 1024.5
20260906085517 18 135 1.6 4.8 0.00 0.00 0.00 56 1024.6
20260906084517 19 135 3.2 6.4 0.00 0.00 0.00 54 1024.8
20260906083517 19 68 3.2 9.7 0.00 0.00 0.00 54 1024.7
20260906082517 20 68 3.2 8.0 0.00 0.00 0.00 53 1024.6
20260906081517 20 68 3.2 6.4 0.00 0.00 0.00 52 1024.9
20260906080537 20 68 3.2 9.7 0.00 0.00 0.00 51 1025.0
20260906075517 20 68 3.2 8.0 0.00 0.00 0.00 50 1024.9
20260906074517 21 45 1.6 6.4 0.00 0.00 0.00 50 1025.0
20260906073537 21 293 3.2 9.7 0.00 0.00 0.00 50 1024.5
20260906072517 21 225 4.8 16.1 0.00 0.00 0.00 50 1024.5
20260906071517 20 180 3.2 12.9 0.00 0.00 0.00 53 1024.6
20260906070517 20 90 1.6 4.8 0.00 0.00 0.00 54 1024.2
20260906065537 20 68 1.6 4.8 0.00 0.00 0.00 53 1024.6
20260906064517 20 68 3.2 8.0 0.00 0.00 0.00 53 1024.6
20260906063517 20 68 3.2 6.4 0.00 0.00 0.00 52 1024.7
20260906062537 21 338 1.6 9.7 0.00 0.00 0.00 51 1024.9
20260906061517 21 23 1.6 4.8 0.00 0.00 0.00 51 1025.0
20260906060517 21 248 3.2 12.9 0.00 0.00 0.00 51 1024.9
20260906055516 20 23 3.2 8.0 0.00 0.00 0.00 52 1025.1
20260906054516 20 90 3.2 9.7 0.00 0.00 0.00 52 1025.0
20260906053516 21 225 1.6 4.8 0.00 0.00 0.00 51 1025.1
20260906052516 21 293 1.6 9.7 0.00 0.00 0.00 50 1025.2
20260906051536 21 0.0 3.2 0.00 0.00 0.00 51 1025.2
20260906050516 21 203 3.2 11.3 0.00 0.00 0.00 51 1024.9
20260906045516 21 225 6.4 16.1 0.00 0.00 0.00 53 1024.9
20260906044516 21 225 11.3 24.1 0.00 0.00 0.00 52 1025.3
20260906043537 24 225 12.9 25.7 0.00 0.00 0.00 42 1025.5
20260906042536 24 158 8.0 17.7 0.00 0.00 0.00 37 1025.5
20260906041516 23 180 3.2 6.4 0.00 0.00 0.00 38 1024.9
20260906040516 23 90 4.8 11.3 0.00 0.00 0.00 40 1024.1
20260906035516 22 180 3.2 16.1 0.00 0.00 0.00 40 1023.2
20260906034516 22 68 1.6 3.2 0.00 0.00 0.00 40 1023.0
20260906033516 22 68 1.6 3.2 0.00 0.00 0.00 40 1022.5
20260906032516 22 0.0 0.0 0.00 0.00 0.00 40 1022.3
20260906031516 22 68 1.6 4.8 0.00 0.00 0.00 41 1022.3
20260906030516 22 0.0 1.6 0.00 0.00 0.00 41 1021.4
20260906025516 23 0.0 1.6 0.00 0.00 0.00 40 1021.5
20260906024516 23 0.0 0.0 0.00 0.00 0.00 39 1021.3
20260906023556 23 0.0 1.6 0.00 0.00 0.00 39 1021.3
20260906022516 23 68 3.2 4.8 0.00 0.00 0.00 39 1021.3
20260906021516 22 45 1.6 4.8 0.00 0.00 0.00 40 1020.7
20260906020516 22 0.0 3.2 0.00 0.00 0.00 41 1019.8
20260906015536 23 0.0 0.0 0.00 0.00 0.00 41 1020.1
20260906014516 23 0.0 0.0 0.00 0.00 0.00 42 1020.0
20260906013516 23 0.0 0.0 0.00 0.00 0.00 41 1019.1
20260906012516 24 0.0 0.0 0.00 0.00 0.00 41 1019.4
20260906011557 25 45 1.6 3.2 0.00 0.00 0.00 40 1019.3
20260906010516 25 0.0 4.8 0.00 0.00 0.00 37 1019.5
20260906005517 26 0.0 0.0 0.00 0.00 0.00 39 1019.7
20260906004516 27 0.0 0.0 0.00 0.00 0.00 39 1020.2
20260906003516 28 68 1.6 4.8 0.00 0.00 0.00 37 1020.9
20260906002516 30 68 1.6 4.8 0.00 0.00 0.00 32 1021.2
20260906001516 30 68 1.6 4.8 0.00 0.00 0.00 30 1021.5
20260906000516 30 68 1.6 3.2 0.00 0.00 0.00 28 1021.0
20260905235516 30 0.0 0.0 0.00 0.00 0.00 28 1020.9
20260905234516 31 68 4.8 11.3 0.00 0.00 0.00 25 1021.2
20260905233536 32 68 4.8 8.0 0.00 0.00 0.00 23 1021.5
20260905232516 32 315 1.6 8.0 0.00 0.00 0.00 23 1021.6
20260905231516 32 68 4.8 8.0 0.00 0.00 0.00 24 1021.2
20260905230517 32 45 3.2 6.4 0.00 0.00 0.00 23 1021.4
20260905225516 32 0 3.2 8.0 0.00 0.00 0.00 24 1021.3